TimeMST,TemperatureF,Dew PointF,Humidity,Sea Level PressureIn,VisibilityMPH,Wind Direction,Wind SpeedMPH,Gust SpeedMPH,PrecipitationIn,Events,Conditions,WindDirDegrees,DateUTC
12:53 AM,43.0,33.1,68,29.58,10.0,SSW,13.8,-,N/A,,Scattered Clouds,210,2012-11-10 07:53:00
1:53 AM,45.0,34.0,65,29.53,10.0,SSW,18.4,32.2,N/A,,Overcast,210,2012-11-10 08:53:00
2:53 AM,45.0,34.0,65,29.48,10.0,SW,24.2,38.0,N/A,,Overcast,220,2012-11-10 09:53:00
3:53 AM,39.9,37.0,89,29.53,4.0,WSW,23.0,29.9,0.01,Rain,Light Rain,250,2012-11-10 10:53:00
4:03 AM,37.4,35.6,93,29.71,4.0,WSW,19.6,25.3,0.02,Rain,Rain,250,2012-11-10 11:03:00
4:16 AM,37.4,35.6,93,29.71,5.0,WSW,19.6,28.8,0.04,Rain,Light Rain,240,2012-11-10 11:16:00
4:47 AM,33.8,32.0,93,29.74,2.0,WSW,20.7,27.6,0.08,Snow,Light Snow,250,2012-11-10 11:47:00
4:53 AM,33.1,32.0,96,29.63,1.2,WSW,15.0,27.6,0.09,Snow,Light Snow,240,2012-11-10 11:53:00
5:01 AM,33.8,32.0,93,29.76,1.0,WSW,16.1,23.0,0.00,Snow,Light Snow,250,2012-11-10 12:01:00
5:09 AM,32.0,30.2,93,29.77,0.5,West,13.8,23.0,0.01,Fog-Snow,Snow,260,2012-11-10 12:09:00
5:53 AM,32.0,30.9,96,29.68,1.0,WSW,12.7,-,0.07,Snow,Light Snow,240,2012-11-10 12:53:00
5:59 AM,32.0,30.2,93,29.78,2.0,WSW,11.5,-,0.00,Snow,Light Snow,240,2012-11-10 12:59:00
6:07 AM,32.0,30.2,93,29.78,2.0,WSW,11.5,-,0.00,Snow,Light Snow,240,2012-11-10 13:07:00
6:12 AM,32.0,30.2,93,29.79,1.2,WSW,11.5,-,0.01,Snow,Light Snow,240,2012-11-10 13:12:00
6:18 AM,32.0,30.2,93,29.80,0.8,WSW,13.8,-,0.01,Snow,Light Snow,240,2012-11-10 13:18:00
6:34 AM,30.2,30.2,100,29.80,1.0,West,16.1,24.2,0.01,Snow,Light Snow,260,2012-11-10 13:34:00
6:53 AM,30.9,28.0,89,29.75,1.0,West,19.6,27.6,0.02,Snow,Light Snow,260,2012-11-10 13:53:00
6:56 AM,30.2,28.4,93,29.83,0.8,WSW,21.9,27.6,0.00,Snow,Light Snow,250,2012-11-10 13:56:00
7:06 AM,28.4,26.6,93,29.84,0.2,West,23.0,31.1,0.00,Fog-Snow,Heavy Snow,260,2012-11-10 14:06:00
7:21 AM,28.4,26.6,93,29.84,0.5,WSW,15.0,24.2,0.00,Fog-Snow,Snow,250,2012-11-10 14:21:00
7:28 AM,28.4,28.4,100,29.85,0.2,WSW,16.1,-,0.00,Fog-Snow,Heavy Snow,240,2012-11-10 14:28:00
7:37 AM,28.4,28.4,100,29.85,0.5,SW,13.8,-,0.01,Fog-Snow,Snow,230,2012-11-10 14:37:00
7:45 AM,28.4,26.6,93,29.84,1.5,SW,12.7,-,0.01,Snow,Light Snow,230,2012-11-10 14:45:00
7:53 AM,28.9,26.1,89,29.78,3.0,WSW,13.8,20.7,0.01,Snow,Light Snow,240,2012-11-10 14:53:00
8:04 AM,28.4,26.6,93,29.85,9.0,SW,13.8,-,0.00,,Overcast,230,2012-11-10 15:04:00
8:42 AM,28.4,26.6,93,29.86,2.5,SW,17.3,23.0,0.00,Snow,Light Snow,220,2012-11-10 15:42:00
8:50 AM,28.4,26.6,93,29.85,8.0,SSW,12.7,-,0.00,Snow,Light Snow,210,2012-11-10 15:50:00
8:53 AM,28.9,26.1,89,29.80,9.0,SW,12.7,-,0.00,,Overcast,220,2012-11-10 15:53:00
9:53 AM,30.0,23.0,75,29.82,10.0,WSW,19.6,25.3,N/A,,Overcast,240,2012-11-10 16:53:00
10:53 AM,30.9,24.1,76,29.82,10.0,SW,13.8,23.0,N/A,,Clear,230,2012-11-10 17:53:00
11:53 AM,32.0,24.1,73,29.83,10.0,WSW,16.1,-,N/A,,Partly Cloudy,240,2012-11-10 18:53:00
12:53 PM,32.0,21.9,66,29.79,10.0,SW,9.2,-,N/A,,Mostly Cloudy,230,2012-11-10 19:53:00
1:53 PM,32.0,23.0,69,29.76,10.0,SSW,15.0,-,0.00,,Overcast,210,2012-11-10 20:53:00
2:53 PM,30.0,23.0,75,29.79,6.0,SSW,16.1,-,0.00,Snow,Light Snow,200,2012-11-10 21:53:00
3:53 PM,28.9,23.0,78,29.83,10.0,South,16.1,-,0.00,,Overcast,190,2012-11-10 22:53:00
4:22 PM,28.4,23.0,80,29.86,1.8,SSW,19.6,28.8,0.00,Snow,Light Snow,200,2012-11-10 23:22:00
4:29 PM,28.4,24.8,86,29.86,2.0,SSW,17.3,26.5,0.00,Snow,Light Snow,210,2012-11-10 23:29:00
4:38 PM,28.4,23.0,80,29.87,1.5,SW,20.7,27.6,0.00,Snow,Light Snow,220,2012-11-10 23:38:00
4:51 PM,26.6,21.2,80,29.86,2.0,SSW,13.8,27.6,0.00,Snow,Light Snow,210,2012-11-10 23:51:00
4:53 PM,27.0,21.9,81,29.92,2.5,SSW,11.5,-,0.00,Snow,Light Snow,210,2012-11-10 23:53:00
5:01 PM,26.6,21.2,80,29.86,9.0,SSW,9.2,-,0.00,,Overcast,210,2012-11-11 00:01:00
5:45 PM,28.4,23.0,80,29.88,2.5,West,10.4,-,0.00,Snow,Light Snow,260,2012-11-11 00:45:00
5:53 PM,28.0,23.0,81,29.94,3.0,West,12.7,-,0.00,Snow,Light Snow,270,2012-11-11 00:53:00
5:59 PM,26.6,23.0,86,29.88,4.0,West,13.8,-,0.00,Snow,Light Snow,260,2012-11-11 00:59:00
6:10 PM,26.6,23.0,86,29.90,4.0,WSW,13.8,-,0.00,Snow,Light Snow,250,2012-11-11 01:10:00
6:13 PM,26.6,23.0,86,29.90,1.8,WSW,23.0,28.8,0.00,Snow,Light Snow,240,2012-11-11 01:13:00
6:21 PM,26.6,24.8,93,29.90,0.5,WSW,15.0,28.8,0.00,Fog-Snow,Snow,240,2012-11-11 01:21:00
6:23 PM,26.6,24.8,93,29.90,0.2,WSW,17.3,28.8,0.00,Fog-Snow,Heavy Snow,250,2012-11-11 01:23:00
6:32 PM,26.6,24.8,93,29.90,0.5,WSW,15.0,-,0.00,Fog-Snow,Snow,240,2012-11-11 01:32:00
6:43 PM,26.6,24.8,93,29.90,1.0,WSW,12.7,-,0.00,Snow,Light Snow,240,2012-11-11 01:43:00
6:53 PM,26.1,24.1,92,29.98,1.5,WSW,9.2,-,0.00,Snow,Light Snow,250,2012-11-11 01:53:00
7:03 PM,26.6,24.8,93,29.90,1.2,WSW,10.4,-,0.00,Snow,Light Snow,250,2012-11-11 02:03:00
7:25 PM,26.6,24.8,93,29.90,3.0,West,9.2,-,0.00,Snow,Light Snow,260,2012-11-11 02:25:00
7:53 PM,25.0,23.0,92,30.01,10.0,WSW,9.2,-,0.00,,Overcast,250,2012-11-11 02:53:00
8:16 PM,24.8,23.0,93,29.91,10.0,NW,4.6,-,N/A,,Overcast,320,2012-11-11 03:16:00
8:27 PM,24.8,21.2,86,29.91,10.0,WNW,3.5,-,N/A,,Overcast,290,2012-11-11 03:27:00
9:25 PM,24.8,21.2,86,29.92,1.8,WNW,3.5,-,0.01,Snow,Light Snow,290,2012-11-11 04:25:00
9:33 PM,24.8,23.0,93,29.92,0.8,Calm,Calm,-,0.01,Snow,Light Snow,0,2012-11-11 04:33:00
9:38 PM,24.8,23.0,93,29.92,2.0,SSW,3.5,-,0.01,Snow,Light Snow,210,2012-11-11 04:38:00
9:45 PM,24.8,23.0,93,29.92,7.0,SSW,3.5,-,0.01,Snow,Light Snow,210,2012-11-11 04:45:00
9:53 PM,24.1,23.0,96,30.02,9.0,South,5.8,-,0.01,,Overcast,180,2012-11-11 04:53:00
10:53 PM,25.0,21.9,88,30.02,10.0,SW,5.8,-,N/A,,Overcast,220,2012-11-11 05:53:00
11:53 PM,25.0,21.0,85,30.01,10.0,SW,5.8,-,N/A,,Overcast,230,2012-11-11 06:53:00